TimeAEST,TemperatureF,Dew PointF,Humidity,Sea Level PressureIn,VisibilityMPH,Wind Direction,Wind SpeedMPH,Gust SpeedMPH,PrecipitationIn,Events,Conditions,WindDirDegrees,DateUTC
12:00 AM,65,63,90,30.03,,Calm,Calm,,,,,,2013-08-18 14:00:00
12:00 AM,66.2,62.6,88,30.01,6.2,Calm,Calm,-,N/A,,Partly Cloudy,0,2013-08-18 14:00:00
12:30 AM,66.2,64.4,94,30.01,6.2,SSE,1.2,-,N/A,,Partly Cloudy,150,2013-08-18 14:30:00
1:00 AM,66,63,87,30.02,,SE,2.3,,,,,140,2013-08-18 15:00:00
1:00 AM,66.2,62.6,88,30.01,6.2,SE,2.3,-,N/A,,Partly Cloudy,140,2013-08-18 15:00:00
1:30 AM,66.2,64.4,94,29.98,6.2,WSW,2.3,-,N/A,,Partly Cloudy,240,2013-08-18 15:30:00
2:00 AM,62.6,62.6,100,29.98,6.2,Calm,Calm,-,N/A,,Partly Cloudy,0,2013-08-18 16:00:00
2:30 AM,64.4,62.6,94,29.98,6.2,SSW,2.3,-,N/A,,Partly Cloudy,200,2013-08-18 16:30:00
3:00 AM,65,63,89,29.98,,South,3.5,,,,,170,2013-08-18 17:00:00
3:00 AM,64.4,62.6,94,29.98,6.2,South,3.5,-,N/A,,Partly Cloudy,170,2013-08-18 17:00:00
3:30 AM,64.4,62.6,94,29.98,6.2,Calm,Calm,-,N/A,,Partly Cloudy,0,2013-08-18 17:30:00
4:00 AM,62.6,62.6,100,29.98,6.2,WSW,3.5,-,N/A,,Partly Cloudy,250,2013-08-18 18:00:00
4:30 AM,64.4,62.6,94,29.98,6.2,NW,2.3,-,N/A,,Partly Cloudy,310,2013-08-18 18:30:00
5:00 AM,64.4,60.8,88,29.98,6.2,SE,13.8,-,N/A,,Partly Cloudy,140,2013-08-18 19:00:00
5:30 AM,64.4,60.8,88,29.98,6.2,SE,10.4,-,N/A,,Partly Cloudy,140,2013-08-18 19:30:00
6:00 AM,64,61,88,30.01,19,SSE,3.5,,,,Partly Cloudy,160,2013-08-18 20:00:00
6:00 AM,64.4,60.8,88,30.01,6.2,SSE,3.5,-,N/A,,Partly Cloudy,160,2013-08-18 20:00:00
6:30 AM,64.4,60.8,88,30.01,6.2,SE,11.5,-,N/A,,Partly Cloudy,140,2013-08-18 20:30:00
7:00 AM,65,60,81,30.04,,SE,13.8,,,,,140,2013-08-18 21:00:00
7:00 AM,64.4,60.8,88,30.04,6.2,SE,13.8,-,N/A,,Partly Cloudy,140,2013-08-18 21:00:00
7:30 AM,68.0,60.8,78,30.04,6.2,SSE,10.4,-,N/A,,Partly Cloudy,150,2013-08-18 21:30:00
8:00 AM,69.8,60.8,73,30.04,6.2,SW,3.5,-,N/A,,Partly Cloudy,220,2013-08-18 22:00:00
8:30 AM,75.2,62.6,65,30.04,6.2,SE,10.4,-,N/A,,Partly Cloudy,130,2013-08-18 22:30:00
9:00 AM,75,62,55,30.06,19,SE,11.5,,,,Partly Cloudy,140,2013-08-18 23:00:00
9:00 AM,75.2,62.6,65,30.04,6.2,SE,11.5,-,N/A,,Partly Cloudy,130,2013-08-18 23:00:00
9:30 AM,77.0,62.6,61,30.04,6.2,South,10.4,-,N/A,,Partly Cloudy,180,2013-08-18 23:30:00
10:00 AM,77,62,51,30.05,,South,8.1,,,,,170,2013-08-19 00:00:00
10:00 AM,77.0,62.6,61,30.04,6.2,South,8.1,-,N/A,,Partly Cloudy,170,2013-08-19 00:00:00
10:30 AM,78.8,62.6,57,30.04,6.2,South,8.1,-,N/A,,Partly Cloudy,170,2013-08-19 00:30:00
11:00 AM,80.6,60.8,51,30.01,6.2,East,5.8,-,N/A,,Partly Cloudy,100,2013-08-19 01:00:00
11:30 AM,80.6,62.6,54,30.01,6.2,NE,8.1,-,N/A,,Partly Cloudy,50,2013-08-19 01:30:00
12:00 PM,81,63,45,29.99,19,NE,12.7,,,,Partly Cloudy,40,2013-08-19 02:00:00
12:00 PM,80.6,62.6,54,29.98,6.2,NE,12.7,-,N/A,,Partly Cloudy,40,2013-08-19 02:00:00
12:30 PM,80.6,62.6,54,29.98,6.2,ENE,11.5,-,N/A,,Partly Cloudy,70,2013-08-19 02:30:00
1:00 PM,81,63,44,29.96,,NE,10.4,,,,,40,2013-08-19 03:00:00
1:00 PM,80.6,62.6,54,29.95,6.2,NE,10.4,-,N/A,,Partly Cloudy,40,2013-08-19 03:00:00
1:30 PM,80.6,62.6,54,29.92,6.2,NE,11.5,-,N/A,,Partly Cloudy,40,2013-08-19 03:30:00
2:00 PM,80.6,64.4,58,29.92,-9999.0,NE,10.4,-,N/A,,Clear,50,2013-08-19 04:00:00
2:30 PM,78.8,64.4,61,29.92,6.2,NNE,10.4,-,N/A,,Partly Cloudy,20,2013-08-19 04:30:00
3:00 PM,80,64,50,29.92,19,NE,10.4,,,,Partly Cloudy,50,2013-08-19 05:00:00
3:00 PM,78.8,64.4,61,29.92,6.2,NE,10.4,-,N/A,,Partly Cloudy,50,2013-08-19 05:00:00
3:30 PM,78.8,64.4,61,29.92,6.2,NE,11.5,-,N/A,,Partly Cloudy,50,2013-08-19 05:30:00
4:00 PM,78,66,57,29.92,,NE,10.4,,,,,40,2013-08-19 06:00:00
4:00 PM,78.8,66.2,65,29.89,-9999.0,NE,10.4,-,N/A,,Clear,40,2013-08-19 06:00:00
4:30 PM,77.0,66.2,69,29.92,-9999.0,NE,9.2,-,N/A,,Clear,50,2013-08-19 06:30:00
5:00 PM,77.0,66.2,69,29.92,-9999.0,NE,9.2,-,N/A,,Clear,40,2013-08-19 07:00:00
5:30 PM,75.2,66.2,73,29.92,-9999.0,NNE,8.1,-,N/A,,Clear,20,2013-08-19 07:30:00
6:00 PM,73,66,72,29.93,,North,6.9,,,,,0,2013-08-19 08:00:00
6:00 PM,73.4,66.2,78,29.92,-9999.0,North,6.9,-,N/A,,Clear,360,2013-08-19 08:00:00
6:30 PM,73.4,66.2,78,29.92,-9999.0,NNW,5.8,-,N/A,,Clear,340,2013-08-19 08:30:00
7:00 PM,72,66,75,29.95,,North,5.8,,,,,350,2013-08-19 09:00:00
7:00 PM,71.6,66.2,83,29.95,-9999.0,North,5.8,-,N/A,,Clear,350,2013-08-19 09:00:00
7:30 PM,71.6,66.2,83,29.95,-9999.0,West,6.9,-,N/A,,Clear,280,2013-08-19 09:30:00
8:00 PM,71.6,66.2,83,29.95,-9999.0,NW,4.6,-,N/A,,Clear,310,2013-08-19 10:00:00
8:30 PM,71.6,66.2,83,29.95,-9999.0,West,5.8,-,N/A,,Clear,280,2013-08-19 10:30:00
9:00 PM,69,66,86,29.97,,West,4.6,,,,,280,2013-08-19 11:00:00
9:00 PM,69.8,66.2,88,29.98,-9999.0,West,4.6,-,N/A,,Clear,280,2013-08-19 11:00:00
9:30 PM,68.0,66.2,94,29.98,-9999.0,Calm,Calm,-,N/A,,Clear,0,2013-08-19 11:30:00
10:00 PM,67,65,92,29.98,,Calm,Calm,,,,,,2013-08-19 12:00:00
10:00 PM,66.2,64.4,94,29.98,-9999.0,Calm,Calm,-,N/A,,Clear,0,2013-08-19 12:00:00
10:30 PM,66.2,64.4,94,29.98,-9999.0,Calm,Calm,-,N/A,,Clear,0,2013-08-19 12:30:00
11:00 PM,66.2,64.4,94,29.95,-9999.0,West,2.3,-,N/A,,Clear,260,2013-08-19 13:00:00
11:30 PM,66.2,64.4,94,29.95,-9999.0,Calm,Calm,-,N/A,,Clear,0,2013-08-19 13:30:00